Home   Weather   San Juan   Past weeks
Flag for Puerto Rico

Past Weather in San Juan, Puerto Rico — Yesterday and Last 2 Weeks

Now
83 °F

Passing clouds.


Feels Like: 90 °F
Forecast: 88 / 79 °F
Wind: No wind

Location: Luis Munoz Marin

Current Time: Oct 20, 2019 at 10:34:28 pm

Latest Report: Oct 20, 2019 at 9:56 pm


Visibility: 10 mi

Pressure: 29.99 "Hg

Humidity: 77%

Dew Point: 75 °F

Location of San JuanLocation

Past Weather in San Juan — Graph

°F

San Juan Temperature Yesterday

Maximum temperature yesterday: 88 °F (at 10:56 am)
Minimum temperature yesterday: 78 °F (at 6:56 am)
Average temperature yesterday: 82 °F

High & Low Weather Summary for the Past Weeks

 TemperatureHumidityPressure
High90 °F (Oct 12, 10:56 am)97% (Oct 18, 9:56 am)30.01 "Hg (Oct 18, 9:56 am)
Low78 °F (Oct 12, 5:56 am)52% (Oct 12, 10:56 am)29.83 "Hg (Oct 11, 3:56 am)
Average83 °F75%29.93 "Hg
* Reported Oct 5 8:56 pm — Oct 20 8:56 pm, San Juan. Weather by CustomWeather, © 2019

Note: Actual official high and low records may vary slightly from our data, if they occured in-between our weather recording intervals... More about our weather records

Advertising

San Juan Weather History for the Previous 24 Hours

Scroll right to see more
 ConditionsComfort  
Time TempWeatherWind HumidityBarometerVisibility
8:56 pm
Sun, Oct 20
83 °FPassing clouds.5 mph77%29.98 "Hg10 mi
7:56 pm84 °FPassing clouds.6 mph77%29.98 "Hg10 mi
6:56 pm83 °FPassing clouds.7 mph79%29.96 "Hg10 mi
5:56 pm84 °FScattered clouds.10 mph77%29.95 "Hg10 mi
4:56 pm86 °FScattered clouds.12 mph67%29.94 "Hg10 mi
3:56 pm86 °FScattered clouds.15 mph70%29.94 "Hg10 mi
2:56 pm88 °FScattered clouds.17 mph67%29.95 "Hg10 mi
1:56 pm89 °FScattered clouds.18 mph65%29.95 "Hg10 mi
12:56 pm89 °FScattered clouds.17 mph63%29.97 "Hg10 mi
11:56 am88 °FScattered clouds.15 mph67%29.99 "Hg10 mi
10:56 am87 °FScattered clouds.17 mph69%30.00 "Hg10 mi
9:56 am84 °FScattered clouds.8 mph74%30.01 "Hg10 mi
8:56 am85 °FScattered clouds.8 mph72%30.01 "Hg10 mi
7:56 am82 °FScattered clouds.No wind85%30.00 "Hg10 mi
6:56 am79 °FPassing clouds.No wind88%29.98 "Hg10 mi
5:56 am79 °FPassing clouds.No wind88%29.96 "Hg10 mi
4:56 am78 °FPassing clouds.No wind90%29.95 "Hg10 mi
3:56 am79 °FPassing clouds.No wind88%29.94 "Hg10 mi
2:56 am79 °FPassing clouds.No wind84%29.95 "Hg10 mi
1:56 am80 °FPassing clouds.3 mph85%29.96 "Hg10 mi
12:56 am80 °FPassing clouds.No wind81%29.98 "Hg10 mi
11:56 pm
Sat, Oct 19
81 °FPassing clouds.3 mph79%30.00 "Hg10 mi
10:56 pm80 °FPassing clouds.No wind81%30.00 "Hg10 mi
Weather by CustomWeather, © 2019

See weather overview